STARLINK-34253, 64685

Orbit data source: Space-Track

STARLINK-34253, 64685 is a payload satellite owned by SpaceX/Seattle (US) in LEO that was launched on Sat, 28 Jun 2025 UTC via an FALCON 9 launch vehicle from the Air Force Eastern Test Range (AFETR). Payload-class satellites include a variety of spacecraft equipped with specific instruments for various scientific and technological missions. These include communications satellites like Starlink; space stations such as the ISS; scientific satellites like the Hubble; Earth observation satellites from companies like Planet Labs, Umbra, and HawkEye 360; GPS; miniature CubeSats for education and research; and military/defense satellites.

Loading next visibility...
Identifier
64685, 2025-139X
Orbit
LEO
Country
Flag of USUS
Related business
Manufacturer
SpaceX/Seattle
Mission
Operational Commercial Communications
Bus & Motor
STARLINK V2MO, Unknown motor
Mass
575 kg wet, ~530 kg dry
Launch date (UTC)
2025-06-28 (1 year ago)
Launch vehicle
FALCON 9
Launch site
Air Force Eastern Test Range (AFETR)
Object type
Payload
Rocket body
Debris
Shape & HBR
Box + 2 Pan, 17.7 m
Radar Cross Section
36.964 m², Large (>1 m²)

Expand to show TLE details & history
Last TLE update: 21 hours ago

TLE from 21 hours ago
0 STARLINK-34253
1 64685U 25139X   26170.97474646  .00027396  00000-0  81866-3 0  9991
2 64685  53.1595  10.5711 0001002  83.9962 276.1154 15.34412427 55968
Epoch: 2026-06-19T23:23Z
TLE epoch observation values (Epoch: 2026-06-19T23:23:38.094Z)
Latitude
-0.00007°
Longitude
111.4663°
Altitude
463.495 km
Speed
7.636 km/s
True Right ascension
00h 42m 17s
True Declination
0° 00' 00"
Sunlit
Object was in daylight at epoch
Visualization orbit readout
Latitude
Unknown
Longitude
Unknown
Altitude
Unknown
Speed
Unknown
Apparent Right ascension
Unknown
Apparent Declination
Unknown
Sunlit
N/A
Visualization observer readout
Local Sidereal Time
07:19:03
Azimuth
Unknown
Elevation
Unknown
Doppler factor
Unknown
Orbital elements
Apogee altitude
463.609 km
Perigee altitude
462.238 km
Semi-major axis
6,841.06 km
Eccentricity
0.0001
Inclination
53.1595°
RAAN
10.5711°
Arg. of periapsis
83.9962°
True anomaly
276.10398°
Mean anomaly
276.1154°
Eccentric anomaly
276.10969°
Mean motion
3.83582 °/min
Orbital period
93.85 mins
BSTAR
0.00081866
Loading maneuver chart data...
Computing Atmospheric mass density...
Loading historical data...
Loading historical data...
Loading historical data...
Loading historical data...
Loading historical data...
Loading historical data...
Loading historical data...

Documentation

Showing up to 5 results
|